Flag for Germany Weather past 2 weeks in Wolfsburg, Lower Saxony, Germany

57 °F


Feels Like: 57 °F
Forecast: 44 / 53 °F
Wind: 3 mph from Northwest

Location: Celle Airport

Current Time: Oct 9, 2015 at 1:59:20 AM

Latest Report: Oct 9, 2015 at 1:20 AM

Visibility: 2 mi

Pressure: 30.12 "Hg

Humidity: 94%

Dew point: 55 °F

Location of WolfsburgLocation

Historic Weather in Wolfsburg — Graph


Wolfsburg temperature yesterday

Maximum temperature yesterday: 59 °F (at 12:20 PM)
Minimum temperature yesterday: 55 °F (at 1:20 AM)
Average temperature yesterday: 57 °F

Past Weeks' High & Low Weather Summary

High68 °F (Oct 5, 3:20 PM)100% (Sep 24, 1:20 AM)30.69 "Hg (Sep 24, 1:20 AM)
Low34 °F (Oct 2, 5:20 AM)43% (Oct 5, 3:20 PM)29.68 "Hg (Oct 6, 3:01 PM)
Average53 °F83%30.21 "Hg
* Reported Sep 24 12:02 AM — Oct 9 12:20 AM, Wolfsburg, Weather by CustomWeather, © 2015

Note: Actual official high and low records may vary slightly from our data, if they occured in-between our weather recording intervals... More about our weather records


Wolfsburg weather history for previous 24 hours

Time TempWeatherWind HumidityBarometerVisibility
12:20 AM
Fri, Oct 9
57 °FFog.2 mph94%30.12 "Hg2 mi
11:20 PM
Thu, Oct 8
57 °FFog.2 mph94%30.12 "Hg2 mi
10:20 PM57 °FFog.2 mph94%30.12 "Hg2 mi
9:50 PM57 °FDrizzle. Fog.2 mph94%30.12 "Hg2 mi
9:20 PM57 °FFog.3 mph94%30.12 "Hg2 mi
8:51 PM57 °FDrizzle. Fog.3 mph94%30.12 "Hg2 mi
8:20 PM57 °FDrizzle. Fog.1 mph94%30.12 "Hg1 mi
7:20 PM57 °FDrizzle. Fog.5 mph94%30.12 "Hg1 mi
6:50 PM57 °FLight rain. Fog.6 mph94%30.09 "Hg1 mi
6:20 PM57 °FFog.3 mph94%30.09 "Hg3 mi
5:20 PM57 °FDrizzle. Fog.7 mph94%30.09 "Hg2 mi
4:49 PM57 °FDrizzle. Fog.8 mph94%30.09 "Hg1 mi
4:20 PM57 °FDrizzle. Fog.10 mph94%30.09 "Hg2 mi
3:50 PM57 °FDrizzle. Fog.3 mph94%30.09 "Hg2 mi
3:20 PM57 °FDrizzle. Partly sunny.5 mph94%30.09 "Hg4 mi
2:20 PM59 °FBroken clouds.7 mph88%30.07 "Hg4 mi
1:20 PM59 °FPartly sunny.6 mph88%30.07 "Hg4 mi
12:20 PM59 °FBroken clouds.7 mph88%30.07 "Hg4 mi
11:20 AM57 °FFog.5 mph94%30.07 "Hg2 mi
10:20 AM57 °FFog.3 mph94%30.07 "Hg2 mi
9:20 AM55 °FFog.2 mph100%30.04 "Hg2 mi
9:00 AM55 °FDrizzle. Fog.2 mph100%30.04 "Hg1 mi
8:20 AM55 °FDrizzle. Fog.3 mph100%30.01 "Hg2 mi
7:20 AM55 °FDrizzle. Fog.2 mph100%30.01 "Hg2 mi
6:20 AM55 °FFog.2 mph100%30.01 "Hg3 mi
5:20 AM55 °FPassing clouds.5 mph94%30.01 "Hg4 mi
4:20 AM55 °FPassing clouds.3 mph100%30.01 "Hg4 mi
3:20 AM55 °FPartly cloudy.2 mph100%29.98 "Hg4 mi
2:20 AM55 °FFog.5 mph100%29.98 "Hg3 mi
1:20 AM55 °FFog.3 mph100%29.98 "Hg2 mi
Weather by CustomWeather, © 2015

See weather overviewHow to use our weather pages